Back to catalog

TITAN 3C TRANSTAGE DEB

AliveHEO
NORAD 26525·DEBRIS·🇺🇸 United States

Launched Dec 21, 1965 from Cape Canaveral Space Force Station

Loading…

Next Passes (next 24 hours)

TLE

FreshSource: Space-Track

Epoch: Sep 11, 2026, 22:11 UTC

1 26525U 65108AL  26254.92498073  .00000833  00000-0  59873-2 0  9999
2 26525  26.1557 121.8864 6716977  93.9295 348.3009  2.83390773273188

Track TITAN 3C TRANSTAGE DEB in real time with AllMySat

Download on the App Store